When you browse on this site, cookies collect data to enhance your experience and personalize the content and advertising you see.
Visit our Privacy Policy to learn more. By continuing to use the site, you agree to this use of cookies and data.
  • In Sweden
  • List of Countries
  • For 7 days
  • Water Temperature
  • Weather Map
  • Weather Widgets
  • user-avatar
    Login

    Hourly Weather Aguilar

    Today, 22 November, Friday

    Time Temperature Precipitation Wind Pressure Humidity
    00:00 +3°C° 0 mm 2 mps 673 mmHg 88%
    01:00 +3°C° 0 mm 2 mps 672 mmHg 89%
    02:00 +2°C° 0 mm 3 mps 672 mmHg 90%
    03:00 +2°C° 0 mm 3 mps 671 mmHg 91%
    04:00 +3°C° 0 mm 3 mps 671 mmHg 90%
    05:00 +3°C° 0 mm 4 mps 671 mmHg 89%
    06:00 +3°C° 0 mm 4 mps 670 mmHg 89%
    07:00 +3°C° 0.3 mm 5 mps 670 mmHg 88%
    08:00 +3°C° 0.3 mm 6 mps 669 mmHg 88%
    09:00 +3°C° 0.3 mm 7 mps 669 mmHg 88%
    10:00 +4°C° 0.5 mm 7 mps 668 mmHg 88%
    11:00 +4°C° 0.5 mm 7 mps 667 mmHg 88%
    12:00 +4°C° 0.5 mm 8 mps 666 mmHg 88%
    13:00 +5°C° 0.3 mm 8 mps 665 mmHg 87%
    14:00 +5°C° 0.3 mm 8 mps 664 mmHg 87%
    15:00 +6°C° 0.3 mm 8 mps 663 mmHg 86%
    16:00 +5°C° 1.4 mm 7 mps 663 mmHg 88%
    17:00 +5°C° 1.4 mm 6 mps 663 mmHg 90%
    18:00 +6°C° 1.4 mm 5 mps 662 mmHg 92%
    19:00 +4°C° 0.4 mm 6 mps 662 mmHg 90%
    20:00 +4°C° 0.4 mm 6 mps 662 mmHg 87%
    21:00 +3°C° 0.4 mm 7 mps 662 mmHg 84%
    22:00 +3°C° 0.2 mm 6 mps 662 mmHg 84%
    23:00 +3°C° 0.2 mm 6 mps 662 mmHg 84%

    Tomorrow, 23 November, Saturday

    Time Temperature Precipitation Wind Pressure Humidity
    00:00 +3°C° 0.2 mm 6 mps 662 mmHg 85%
    01:00 +3°C° 0.1 mm 5 mps 662 mmHg 85%
    02:00 +4°C° 0.1 mm 4 mps 662 mmHg 85%
    03:00 +4°C° 0.1 mm 4 mps 663 mmHg 86%
    04:00 +4°C° 0.1 mm 4 mps 664 mmHg 85%
    05:00 +3°C° 0.1 mm 5 mps 664 mmHg 83%
    06:00 +3°C° 0.1 mm 6 mps 665 mmHg 82%
    07:00 +3°C° 0 mm 7 mps 666 mmHg 78%
    08:00 +2°C° 0 mm 8 mps 667 mmHg 74%
    09:00 +2°C° 0 mm 8 mps 668 mmHg 69%
    10:00 +3°C° 0 mm 9 mps 669 mmHg 65%
    11:00 +5°C° 0 mm 9 mps 670 mmHg 62%
    12:00 +5°C° 0 mm 9 mps 670 mmHg 58%
    13:00 +5°C° 0 mm 9 mps 670 mmHg 58%
    14:00 +5°C° 0 mm 9 mps 671 mmHg 58%
    15:00 +5°C° 0 mm 8 mps 671 mmHg 59%
    16:00 +4°C° 0 mm 7 mps 672 mmHg 64%
    17:00 +3°C° 0 mm 5 mps 672 mmHg 69%
    18:00 +3°C° 0 mm 4 mps 673 mmHg 74%
    19:00 +3°C° 0 mm 3 mps 673 mmHg 76%
    20:00 +3°C° 0 mm 3 mps 674 mmHg 78%
    21:00 +2°C° 0 mm 3 mps 675 mmHg 80%
    22:00 +2°C° 0 mm 3 mps 675 mmHg 79%
    23:00 +2°C° 0 mm 3 mps 675 mmHg 78%

    Day after tomorrow, 24 November, Sunday

    Time Temperature Precipitation Wind Pressure Humidity
    00:00 +1°C° 0 mm 3 mps 676 mmHg 77%
    01:00 +1°C° 0 mm 3 mps 676 mmHg 76%
    02:00 +1°C° 0 mm 3 mps 676 mmHg 76%
    03:00 0°C° 0 mm 3 mps 677 mmHg 75%
    04:00 0°C° 0 mm 3 mps 677 mmHg 76%
    05:00 0°C° 0 mm 3 mps 677 mmHg 77%
    06:00 0°C° 0 mm 3 mps 677 mmHg 78%
    07:00 +1°C° 0 mm 3 mps 678 mmHg 74%
    08:00 +2°C° 0 mm 3 mps 679 mmHg 70%
    09:00 +3°C° 0 mm 3 mps 679 mmHg 66%
    10:00 +5°C° 0 mm 3 mps 680 mmHg 61%
    11:00 +7°C° 0 mm 3 mps 680 mmHg 57%
    12:00 +8°C° 0 mm 3 mps 680 mmHg 53%
    13:00 +8°C° 0 mm 3 mps 680 mmHg 55%
    14:00 +8°C° 0 mm 3 mps 680 mmHg 57%
    15:00 +8°C° 0 mm 3 mps 680 mmHg 60%
    16:00 +5°C° 0 mm 3 mps 680 mmHg 65%
    17:00 +5°C° 0 mm 2 mps 680 mmHg 70%
    18:00 +4°C° 0 mm 2 mps 680 mmHg 76%
    19:00 +4°C° 0 mm 2 mps 680 mmHg 76%
    20:00 +4°C° 0 mm 2 mps 680 mmHg 77%
    21:00 +3°C° 0 mm 3 mps 681 mmHg 77%
    22:00 +4°C° 0 mm 2 mps 681 mmHg 80%
    23:00 +4°C° 0 mm 2 mps 681 mmHg 82%

    25 November, Monday

    Time Temperature Precipitation Wind Pressure Humidity
    00:00 +4°C° 0 mm 2 mps 681 mmHg 84%
    01:00 +4°C° 0 mm 2 mps 681 mmHg 86%
    02:00 +4°C° 0 mm 2 mps 681 mmHg 87%
    03:00 +4°C° 0 mm 2 mps 680 mmHg 88%
    04:00 +4°C° 0 mm 2 mps 681 mmHg 89%
    05:00 +5°C° 0 mm 1 mps 681 mmHg 89%
    06:00 +5°C° 0 mm 1 mps 681 mmHg 89%
    07:00 +6°C° 0 mm 1 mps 681 mmHg 87%
    08:00 +7°C° 0 mm 2 mps 682 mmHg 84%
    09:00 +8°C° 0 mm 2 mps 682 mmHg 81%
    10:00 +9°C° 0 mm 2 mps 682 mmHg 77%
    11:00 +12°C° 0 mm 2 mps 683 mmHg 73%
    12:00 +13°C° 0 mm 2 mps 683 mmHg 69%
    13:00 +13°C° 0 mm 2 mps 683 mmHg 69%
    14:00 +13°C° 0 mm 2 mps 682 mmHg 69%
    15:00 +13°C° 0 mm 2 mps 682 mmHg 70%
    16:00 +12°C° 0 mm 2 mps 682 mmHg 76%
    17:00 +9°C° 0 mm 2 mps 682 mmHg 82%
    18:00 +9°C° 0 mm 1 mps 682 mmHg 88%
    19:00 +8°C° 0 mm 2 mps 682 mmHg 89%
    20:00 +8°C° 0 mm 2 mps 682 mmHg 90%
    21:00 +8°C° 0 mm 2 mps 682 mmHg 91%
    22:00 +8°C° 0 mm 2 mps 682 mmHg 90%
    23:00 +8°C° 0 mm 2 mps 682 mmHg 90%

    26 November, Tuesday

    Time Temperature Precipitation Wind Pressure Humidity
    00:00 +8°C° 0 mm 2 mps 682 mmHg 90%
    01:00 +8°C° 0 mm 2 mps 682 mmHg 91%
    02:00 +8°C° 0 mm 2 mps 682 mmHg 91%
    03:00 +8°C° 0 mm 2 mps 681 mmHg 91%
    04:00 +8°C° 0 mm 2 mps 681 mmHg 92%
    05:00 +8°C° 0 mm 2 mps 681 mmHg 92%
    06:00 +8°C° 0 mm 2 mps 681 mmHg 92%
    07:00 +9°C° 0 mm 2 mps 681 mmHg 89%
    08:00 +9°C° 0 mm 3 mps 682 mmHg 86%
    09:00 +10°C° 0 mm 3 mps 682 mmHg 83%
    10:00 +11°C° 0 mm 4 mps 682 mmHg 78%
    11:00 +12°C° 0 mm 4 mps 682 mmHg 73%
    12:00 +13°C° 0 mm 5 mps 682 mmHg 68%
    13:00 +14°C° 0 mm 5 mps 681 mmHg 68%
    14:00 +14°C° 0 mm 4 mps 681 mmHg 67%
    15:00 +14°C° 0 mm 4 mps 680 mmHg 67%
    16:00 +12°C° 0 mm 4 mps 680 mmHg 73%
    17:00 +11°C° 0 mm 3 mps 680 mmHg 79%
    18:00 +9°C° 0 mm 3 mps 679 mmHg 85%
    19:00 +9°C° 0 mm 3 mps 679 mmHg 85%
    20:00 +8°C° 0 mm 4 mps 679 mmHg 85%
    21:00 +8°C° 0 mm 4 mps 679 mmHg 85%
    22:00 +8°C° 0 mm 4 mps 679 mmHg 85%
    23:00 +8°C° 0 mm 4 mps 679 mmHg 85%

    27 November, Wednesday

    Time Temperature Precipitation Wind Pressure Humidity
    00:00 +7°C° 0 mm 4 mps 679 mmHg 86%
    01:00 +8°C° 0 mm 4 mps 679 mmHg 85%
    02:00 +8°C° 0 mm 4 mps 679 mmHg 85%
    03:00 +8°C° 0 mm 4 mps 679 mmHg 85%
    04:00 +8°C° 0 mm 4 mps 678 mmHg 86%
    05:00 +8°C° 0 mm 4 mps 678 mmHg 87%
    06:00 +8°C° 0 mm 4 mps 678 mmHg 88%
    07:00 +8°C° 0 mm 4 mps 679 mmHg 86%
    08:00 +10°C° 0 mm 4 mps 679 mmHg 84%
    09:00 +9°C° 0 mm 5 mps 680 mmHg 81%
    10:00 +10°C° 0 mm 5 mps 680 mmHg 77%
    11:00 +12°C° 0 mm 5 mps 680 mmHg 73%
    12:00 +13°C° 0 mm 6 mps 680 mmHg 68%
    13:00 +13°C° 0 mm 5 mps 680 mmHg 68%
    14:00 +13°C° 0 mm 5 mps 680 mmHg 68%
    15:00 +13°C° 0 mm 4 mps 680 mmHg 69%
    16:00 +12°C° 0 mm 4 mps 680 mmHg 73%
    17:00 +11°C° 0 mm 3 mps 680 mmHg 77%
    18:00 +10°C° 0 mm 3 mps 680 mmHg 82%
    19:00 +10°C° 0 mm 3 mps 680 mmHg 82%
    20:00 +10°C° 0 mm 3 mps 681 mmHg 82%
    21:00 +10°C° 0 mm 3 mps 681 mmHg 82%
    22:00 +10°C° 0 mm 3 mps 681 mmHg 83%
    23:00 +10°C° 0 mm 3 mps 681 mmHg 84%
    Show more